Location: Unspecified
(0.0000°N, 0.0000°E)
Time: 18:12:54
(UTC+00:00)

Courier 1B Rocket - Pass Details

Date: 03 October 2020
Orbit: 921 x 1202 km, 28.2° (Epoch: 27 October)

Event Time Altitude Azimuth Distance (km) Brightness Sun altitude
Rises 10:35:20 0° 322° (NW) 3,546 7.8 71.1°
Reaches altitude 10° 10:38:28 10° 337° (NNW) 2,620 7.3 71.9°
Maximum altitude 10:43:21 23° 28° (NNE) 1,887 6.9 73.1°
Drops below altitude 10° 10:48:24 10° 79° (ENE) 2,729 7.7 74.3°
Sets 10:51:43 0° 93° (E) 3,728 8.2 75.1°
